Time,TemperatureF,DewpointF,PressureIn,WindDirection,WindDirectionDegrees,WindSpeedMPH,WindSpeedGustMPH,Humidity,HourlyPrecipIn,Conditions,Clouds,dailyrainin,SoftwareType,DateUTC
2013-03-12 00:04:00,55.6,55.0,29.83,East,95,0.0,1.0,96,0.08,,,0.00,weatherlink.com 1.10,2013-03-12 04:04:00,
2013-03-12 00:19:00,55.7,55.0,29.83,East,95,0.0,1.0,97,0.05,,,0.01,weatherlink.com 1.10,2013-03-12 04:19:00,
2013-03-12 00:34:00,55.8,55.0,29.83,ESE,113,0.0,1.0,97,0.04,,,0.02,weatherlink.com 1.10,2013-03-12 04:34:00,
2013-03-12 00:49:00,55.7,55.0,29.82,ESE,108,0.0,1.0,97,0.05,,,0.04,weatherlink.com 1.10,2013-03-12 04:49:00,
2013-03-12 01:04:00,55.7,55.0,29.81,WSW,248,0.0,2.0,97,0.04,,,0.04,weatherlink.com 1.10,2013-03-12 05:04:00,
2013-03-12 01:19:00,55.7,55.0,29.82,East,96,0.0,3.0,97,0.03,,,0.04,weatherlink.com 1.10,2013-03-12 05:19:00,
2013-03-12 01:34:00,55.7,55.0,29.81,SW,232,1.0,4.0,97,0.03,,,0.05,weatherlink.com 1.10,2013-03-12 05:34:00,
2013-03-12 01:49:00,55.9,55.0,29.80,WSW,238,0.0,2.0,97,0.01,,,0.05,weatherlink.com 1.10,2013-03-12 05:49:00,
2013-03-12 02:05:00,56.0,55.0,29.79,SW,223,0.0,3.0,97,0.01,,,0.05,weatherlink.com 1.10,2013-03-12 06:05:00,
2013-03-12 02:20:00,56.2,55.0,29.80,SW,235,1.0,5.0,97,0.01,,,0.05,weatherlink.com 1.10,2013-03-12 06:20:00,
2013-03-12 02:35:00,56.4,56.0,29.79,SW,228,0.0,6.0,97,0.01,,,0.06,weatherlink.com 1.10,2013-03-12 06:35:00,
2013-03-12 02:50:00,56.6,56.0,29.79,SW,220,1.0,8.0,97,0.01,,,0.06,weatherlink.com 1.10,2013-03-12 06:50:00,
2013-03-12 03:05:00,56.8,56.0,29.78,North,9,1.0,10.0,97,0.01,,,0.06,weatherlink.com 1.10,2013-03-12 07:05:00,
2013-03-12 03:20:00,56.9,56.0,29.77,SW,224,3.0,7.0,97,0.02,,,0.07,weatherlink.com 1.10,2013-03-12 07:20:00,
2013-03-12 03:35:00,56.9,56.0,29.77,ESE,117,1.0,7.0,97,0.01,,,0.07,weatherlink.com 1.10,2013-03-12 07:35:00,
2013-03-12 03:50:00,57.0,56.0,29.77,SW,217,3.0,9.0,97,0.02,,,0.08,weatherlink.com 1.10,2013-03-12 07:50:00,
2013-03-12 04:05:00,57.1,56.0,29.76,SW,219,3.0,6.0,97,0.02,,,0.08,weatherlink.com 1.10,2013-03-12 08:05:00,
2013-03-12 04:20:00,57.2,56.0,29.76,SSW,198,4.0,8.0,97,0.02,,,0.09,weatherlink.com 1.10,2013-03-12 08:20:00,
2013-03-12 04:35:00,57.3,57.0,29.76,WSW,239,2.0,7.0,97,0.04,,,0.11,weatherlink.com 1.10,2013-03-12 08:35:00,
2013-03-12 04:50:00,57.4,57.0,29.76,WSW,255,1.0,6.0,97,0.03,,,0.11,weatherlink.com 1.10,2013-03-12 08:50:00,
2013-03-12 05:05:00,57.4,57.0,29.76,SW,215,4.0,7.0,97,0.03,,,0.11,weatherlink.com 1.10,2013-03-12 09:05:00,
2013-03-12 05:20:00,57.4,57.0,29.76,WSW,238,2.0,7.0,97,0.02,,,0.11,weatherlink.com 1.10,2013-03-12 09:20:00,
2013-03-12 05:35:00,57.4,57.0,29.76,SW,217,2.0,7.0,97,0.00,,,0.11,weatherlink.com 1.10,2013-03-12 09:35:00,
2013-03-12 05:50:00,57.3,57.0,29.76,WSW,240,0.0,4.0,97,0.00,,,0.11,weatherlink.com 1.10,2013-03-12 09:50:00,
2013-03-12 06:05:00,57.3,57.0,29.76,WSW,255,0.0,5.0,97,0.00,,,0.11,weatherlink.com 1.10,2013-03-12 10:05:00,
2013-03-12 06:20:00,57.2,56.0,29.77,WSW,256,0.0,5.0,97,0.00,,,0.11,weatherlink.com 1.10,2013-03-12 10:20:00,
2013-03-12 06:35:00,57.2,56.0,29.77,NW,305,3.0,5.0,97,0.00,,,0.11,weatherlink.com 1.10,2013-03-12 10:35:00,
2013-03-12 06:50:00,57.1,56.0,29.77,WSW,246,0.0,3.0,97,0.00,,,0.11,weatherlink.com 1.10,2013-03-12 10:50:00,
2013-03-12 07:20:00,56.9,56.0,29.78,SSW,200,1.0,5.0,96,0.00,,,0.11,weatherlink.com 1.10,2013-03-12 11:20:00,
2013-03-12 07:35:00,56.8,56.0,29.79,WSW,238,1.0,3.0,96,0.00,,,0.11,weatherlink.com 1.10,2013-03-12 11:35:00,
2013-03-12 07:50:00,56.3,55.0,29.79,WSW,242,1.0,3.0,95,0.00,,,0.11,weatherlink.com 1.10,2013-03-12 11:50:00,
2013-03-12 08:05:00,55.8,54.0,29.80,SW,223,2.0,3.0,95,0.00,,,0.11,weatherlink.com 1.10,2013-03-12 12:05:00,
2013-03-12 08:20:00,55.2,54.0,29.81,West,271,1.0,5.0,94,0.00,,,0.11,weatherlink.com 1.10,2013-03-12 12:20:00,
2013-03-12 08:35:00,54.5,53.0,29.82,West,262,3.0,8.0,93,0.00,,,0.11,weatherlink.com 1.10,2013-03-12 12:35:00,
2013-03-12 08:50:00,54.1,53.0,29.83,WSW,256,1.0,6.0,94,0.00,,,0.11,weatherlink.com 1.10,2013-03-12 12:50:00,
2013-03-12 09:05:00,53.6,52.0,29.84,SW,215,2.0,7.0,94,0.00,,,0.11,weatherlink.com 1.10,2013-03-12 13:05:00,
2013-03-12 09:20:00,53.4,52.0,29.85,South,185,0.0,3.0,95,0.00,,,0.11,weatherlink.com 1.10,2013-03-12 13:20:00,
2013-03-12 09:35:00,53.2,52.0,29.85,WSW,246,0.0,4.0,95,0.01,,,0.12,weatherlink.com 1.10,2013-03-12 13:35:00,
2013-03-12 09:50:00,52.6,50.0,29.86,East,95,0.0,5.0,92,0.01,,,0.12,weatherlink.com 1.10,2013-03-12 13:50:00,
2013-03-12 10:05:00,52.0,50.0,29.86,NE,54,0.0,2.0,94,0.01,,,0.12,weatherlink.com 1.10,2013-03-12 14:05:00,
2013-03-12 10:20:00,51.6,49.0,29.87,East,101,0.0,2.0,91,0.01,,,0.12,weatherlink.com 1.10,2013-03-12 14:20:00,
2013-03-12 10:35:00,51.3,49.0,29.87,East,86,0.0,2.0,91,0.00,,,0.12,weatherlink.com 1.10,2013-03-12 14:35:00,
2013-03-12 10:50:00,52.2,49.0,29.87,East,96,2.0,3.0,89,0.00,,,0.12,weatherlink.com 1.10,2013-03-12 14:50:00,
2013-03-12 11:05:00,53.2,50.0,29.86,ESE,107,0.0,2.0,89,0.00,,,0.12,weatherlink.com 1.10,2013-03-12 15:05:00,
2013-03-12 11:20:00,54.5,50.0,29.87,SSE,167,0.0,1.0,85,0.00,,,0.12,weatherlink.com 1.10,2013-03-12 15:20:00,
2013-03-12 11:35:00,56.1,51.0,29.88,ESE,103,1.0,2.0,82,0.00,,,0.12,weatherlink.com 1.10,2013-03-12 15:35:00,
2013-03-12 11:50:00,57.2,51.0,29.87,East,99,0.0,6.0,79,0.00,,,0.12,weatherlink.com 1.10,2013-03-12 15:50:00,
2013-03-12 12:06:00,58.0,51.0,29.87,East,93,0.0,3.0,77,0.00,,,0.12,weatherlink.com 1.10,2013-03-12 16:06:00,
2013-03-12 12:21:00,59.0,51.0,29.88,ENE,62,1.0,5.0,76,0.00,,,0.12,weatherlink.com 1.10,2013-03-12 16:21:00,
2013-03-12 12:36:00,59.8,52.0,29.88,ESE,108,1.0,5.0,75,0.00,,,0.12,weatherlink.com 1.10,2013-03-12 16:36:00,
2013-03-12 12:51:00,60.4,49.0,29.88,WNW,300,0.0,5.0,66,0.00,,,0.12,weatherlink.com 1.10,2013-03-12 16:51:00,
2013-03-12 13:06:00,61.2,47.0,29.88,WNW,300,1.0,7.0,61,0.00,,,0.12,weatherlink.com 1.10,2013-03-12 17:06:00,
2013-03-12 13:21:00,62.4,49.0,29.88,West,271,1.0,4.0,61,0.00,,,0.12,weatherlink.com 1.10,2013-03-12 17:21:00,
2013-03-12 13:36:00,63.0,48.0,29.87,South,178,0.0,4.0,58,0.00,,,0.12,weatherlink.com 1.10,2013-03-12 17:36:00,
2013-03-12 13:51:00,64.5,48.0,29.87,North,9,1.0,3.0,56,0.00,,,0.12,weatherlink.com 1.10,2013-03-12 17:51:00,
2013-03-12 14:06:00,65.6,48.0,29.87,East,97,0.0,2.0,53,0.00,,,0.12,weatherlink.com 1.10,2013-03-12 18:06:00,
2013-03-12 14:21:00,66.8,48.0,29.87,East,92,0.0,3.0,52,0.00,,,0.12,weatherlink.com 1.10,2013-03-12 18:21:00,
2013-03-12 14:36:00,66.4,43.0,29.86,West,262,1.0,3.0,43,0.00,,,0.12,weatherlink.com 1.10,2013-03-12 18:36:00,
2013-03-12 14:51:00,67.9,46.0,29.86,SW,217,3.0,4.0,45,0.00,,,0.12,weatherlink.com 1.10,2013-03-12 18:51:00,
2013-03-12 15:21:00,68.3,50.0,29.86,East,94,0.0,4.0,52,0.00,,,0.12,weatherlink.com 1.10,2013-03-12 19:21:00,
2013-03-12 15:51:00,71.7,49.0,29.84,East,96,0.0,9.0,45,0.00,,,0.12,weatherlink.com 1.10,2013-03-12 19:51:00,
2013-03-12 16:06:00,72.8,50.0,29.84,East,83,1.0,5.0,44,0.00,,,0.12,weatherlink.com 1.10,2013-03-12 20:06:00,
2013-03-12 16:22:00,71.2,46.0,29.85,North,355,0.0,3.0,41,0.00,,,0.12,weatherlink.com 1.10,2013-03-12 20:22:00,
2013-03-12 16:36:00,69.8,46.0,29.85,East,84,5.0,7.0,42,0.00,,,0.12,weatherlink.com 1.10,2013-03-12 20:36:00,
2013-03-12 16:52:00,71.6,45.0,29.85,ENE,78,2.0,6.0,39,0.00,,,0.12,weatherlink.com 1.10,2013-03-12 20:52:00,
2013-03-12 17:07:00,72.8,47.0,29.85,ESE,107,3.0,6.0,40,0.00,,,0.12,weatherlink.com 1.10,2013-03-12 21:07:00,
2013-03-12 17:22:00,73.2,44.0,29.85,East,96,1.0,5.0,35,0.00,,,0.12,weatherlink.com 1.10,2013-03-12 21:22:00,
2013-03-12 17:37:00,72.4,41.0,29.85,ESE,117,3.0,9.0,32,0.00,,,0.12,weatherlink.com 1.10,2013-03-12 21:37:00,
2013-03-12 17:52:00,71.3,41.0,29.85,ESE,111,2.0,7.0,33,0.00,,,0.12,weatherlink.com 1.10,2013-03-12 21:52:00,
2013-03-12 18:07:00,71.3,42.0,29.86,ENE,70,2.0,8.0,35,0.00,,,0.12,weatherlink.com 1.10,2013-03-12 22:07:00,
2013-03-12 18:22:00,70.7,41.0,29.87,ESE,114,0.0,7.0,34,0.00,,,0.12,weatherlink.com 1.10,2013-03-12 22:22:00,
2013-03-12 18:52:00,67.6,39.0,29.88,ESE,115,1.0,5.0,35,0.00,,,0.12,weatherlink.com 1.10,2013-03-12 22:52:00,
2013-03-12 19:07:00,65.2,37.0,29.89,ENE,76,0.0,2.0,36,0.00,,,0.12,weatherlink.com 1.10,2013-03-12 23:07:00,
2013-03-12 19:22:00,61.8,36.0,29.90,East,86,0.0,2.0,38,0.00,,,0.12,weatherlink.com 1.10,2013-03-12 23:22:00,
2013-03-12 19:37:00,59.3,35.0,29.91,ESE,107,0.0,2.0,41,0.00,,,0.12,weatherlink.com 1.10,2013-03-12 23:37:00,
2013-03-12 19:52:00,57.3,34.0,29.92,North,5,1.0,4.0,42,0.00,,,0.12,weatherlink.com 1.10,2013-03-12 23:52:00,
2013-03-12 20:07:00,55.7,33.0,29.93,ENE,76,1.0,4.0,42,0.00,,,0.12,weatherlink.com 1.10,2013-03-13 00:07:00,
2013-03-12 20:22:00,54.4,33.0,29.94,ESE,118,2.0,2.0,44,0.00,,,0.12,weatherlink.com 1.10,2013-03-13 00:22:00,
2013-03-12 20:37:00,53.3,33.0,29.95,WNW,284,0.0,4.0,46,0.00,,,0.12,weatherlink.com 1.10,2013-03-13 00:37:00,
2013-03-12 20:52:00,52.3,32.0,29.95,NE,48,0.0,2.0,47,0.00,,,0.12,weatherlink.com 1.10,2013-03-13 00:52:00,
2013-03-12 21:07:00,51.7,32.0,29.96,ENE,65,0.0,3.0,48,0.00,,,0.12,weatherlink.com 1.10,2013-03-13 01:07:00,
2013-03-12 21:22:00,51.2,32.0,29.96,East,100,0.0,4.0,48,0.00,,,0.12,weatherlink.com 1.10,2013-03-13 01:22:00,
2013-03-12 21:37:00,50.7,32.0,29.97,ENE,65,0.0,1.0,50,0.00,,,0.12,weatherlink.com 1.10,2013-03-13 01:37:00,
2013-03-12 21:52:00,49.8,32.0,29.98,NNW,344,0.0,1.0,51,0.00,,,0.12,weatherlink.com 1.10,2013-03-13 01:52:00,
2013-03-12 22:07:00,48.8,32.0,29.98,North,351,0.0,0.0,53,0.00,,,0.12,weatherlink.com 1.10,2013-03-13 02:07:00,
2013-03-12 22:22:00,47.6,32.0,29.99,NNE,24,0.0,0.0,55,0.00,,,0.12,weatherlink.com 1.10,2013-03-13 02:22:00,
2013-03-12 22:37:00,46.8,32.0,30.00,SE,126,0.0,1.0,56,0.00,,,0.12,weatherlink.com 1.10,2013-03-13 02:37:00,
2013-03-12 22:52:00,46.8,31.0,30.00,SSE,150,0.0,1.0,55,0.00,,,0.12,weatherlink.com 1.10,2013-03-13 02:52:00,
2013-03-12 23:07:00,46.5,31.0,30.01,SE,146,0.0,0.0,56,0.00,,,0.12,weatherlink.com 1.10,2013-03-13 03:07:00,
2013-03-12 23:23:00,45.9,31.0,30.01,SW,219,0.0,1.0,57,0.00,,,0.12,weatherlink.com 1.10,2013-03-13 03:23:00,
2013-03-12 23:38:00,45.6,31.0,30.02,SSW,200,0.0,0.0,57,0.00,,,0.12,weatherlink.com 1.10,2013-03-13 03:38:00,
2013-03-12 23:53:00,44.8,32.0,30.02,SSW,200,0.0,0.0,62,0.00,,,0.12,weatherlink.com 1.10,2013-03-13 03:53:00,